Вернуться в каталог

STARLINK-34440

АктивенСвязьVLEO
NORAD 64614·PAYLOAD·🇺🇸 United States

Запущен Jun 25, 2025 с Cape Canaveral Space Force Station

Loading…

Ближайшие Пролёты (ближайшие 24 часа)

TLE

СвежийSource: CelesTrak SupGP

Эпоха: Sep 14, 2026, 20:58 UTC

1 64614C 25137W   26257.87409722 -.00052541  00000+0 -15506-2 0  2574
2 64614  53.1569 174.0230 0001245  82.3079 315.9944 15.34452606    12

Отслеживайте STARLINK-34440 в реальном времени с AllMySat

Download on the App Store